| DS18B20 | SHTC3 | PZEM-004T | WiFi | ||||||||
|---|---|---|---|---|---|---|---|---|---|---|---|
| ID | Date d/m/Y & Time | data1 สูง | data2 ต่ำ | data3 นอก | temp pcb | hum pcb | Volt | Amp | Watt | rssi | Time |
| 3870 | 17/07/2026 01:59:45 | 27.9  | 27.9  | 25.8  | 28.9  | 66.3  | 231.7  | 0.04  | 4.5  | -79  | 01:59 |
| 3869 | 17/07/2026 01:55:03 | 27.9  | 27.9  | 25.7  | 28.8  | 66.2  | 231.7  | 0.04  | 4.5  | -78  | 01:55 |
| 3868 | 17/07/2026 01:50:20 | 27.9  | 27.9  | 25.8  | 28.9  | 66.3  | 231.2  | 0.04  | 4.5  | -78  | 01:50 |
| 3867 | 17/07/2026 01:45:37 | 27.9  | 27.9  | 25.8  | 28.9  | 66.3  | 231.5  | 0.04  | 4.5  | -79  | 01:45 |
| 3866 | 17/07/2026 01:40:54 | 27.9  | 27.9  | 25.6  | 29.0  | 66.2  | 229.5  | 0.04  | 4.5  | -80  | 01:40 |
| 3865 | 17/07/2026 01:36:12 | 28.0  | 27.9  | 25.5  | 29.1  | 66.3  | 231.3  | 0.04  | 4.5  | -79  | 01:36 |
| 3864 | 17/07/2026 01:31:28 | 28.0  | 28.0  | 25.6  | 29.1  | 66.3  | 230.0  | 0.04  | 4.5  | -79  | 01:31 |
| 3863 | 17/07/2026 01:26:45 | 28.0  | 28.0  | 25.7  | 29.1  | 66.3  | 228.3  | 0.04  | 4.5  | -80  | 01:26 |
| 3862 | 17/07/2026 01:22:03 | 28.0  | 28.0  | 25.9  | 29.1  | 66.2  | 226.1  | 0.04  | 4.5  | -78  | 01:22 |
| 3861 | 17/07/2026 01:17:19 | 28.0  | 28.0  | 25.9  | 29.0  | 66.2  | 228.5  | 0.04  | 4.5  | -78  | 01:17 |
| 3860 | 17/07/2026 01:12:36 | 28.0  | 28.0  | 25.9  | 29.0  | 66.2  | 226.9  | 0.04  | 4.5  | -75  | 01:12 |
| 3859 | 17/07/2026 01:07:53 | 28.1  | 28.1  | 25.9  | 29.0  | 66.2  | 227.9  | 0.04  | 4.5  | -78  | 01:07 |
| 3858 | 17/07/2026 01:03:10 | 28.1  | 28.1  | 25.9  | 29.1  | 66.2  | 226.2  | 0.04  | 4.5  | -77  | 01:03 |
| 3857 | 17/07/2026 00:58:26 | 28.1  | 28.1  | 26.0  | 29.1  | 66.3  | 228.1  | 0.04  | 4.5  | -75  | 00:58 |
| 3856 | 17/07/2026 00:53:43 | 28.1  | 28.1  | 26.2  | 29.0  | 66.2  | 226.3  | 0.04  | 4.5  | -78  | 00:53 |
| 3855 | 17/07/2026 00:49:00 | 28.1  | 28.1  | 26.2  | 29.1  | 66.3  | 227.9  | 0.04  | 4.5  | -77  | 00:49 |
| 3854 | 17/07/2026 00:44:17 | 28.1  | 28.1  | 26.2  | 29.1  | 66.3  | 225.7  | 0.04  | 4.5  | -75  | 00:44 |
| 3853 | 17/07/2026 00:39:34 | 28.1  | 28.1  | 26.4  | 29.1  | 66.3  | 226.1  | 0.04  | 4.5  | -78  | 00:39 |
| 3852 | 17/07/2026 00:34:51 | 28.1  | 28.1  | 26.4  | 29.1  | 66.3  | 226.7  | 0.04  | 4.5  | -75  | 00:34 |
| 3851 | 17/07/2026 00:30:07 | 28.2  | 28.2  | 26.3  | 29.1  | 66.2  | 228.0  | 0.04  | 4.5  | -78  | 00:30 |
| 3850 | 17/07/2026 00:25:23 | 28.2  | 28.2  | 26.2  | 29.1  | 66.3  | 225.8  | 0.04  | 4.5  | -78  | 00:25 |
| 3849 | 17/07/2026 00:20:41 | 28.2  | 28.2  | 26.2  | 29.3  | 66.4  | 226.2  | 0.04  | 4.5  | -78  | 00:20 |
| 3848 | 17/07/2026 00:15:56 | 28.2  | 28.2  | 26.1  | 29.1  | 66.3  | 225.4  | 0.04  | 4.5  | -78  | 00:15 |
| 3847 | 17/07/2026 00:11:13 | 28.2  | 28.2  | 26.1  | 29.3  | 66.2  | 227.6  | 0.04  | 4.5  | -79  | 00:11 |